GALAXY 18 (G-18)

Last updated on Tue Jul 01 2025 00:02:44 GMT+0000 (Coordinated Universal Time)

1 32951U 08024A 25181.59799855 .00000025 00000+0 00000+0 0 9993 2 32951 0.0130 307.4628 0003123 154.0691 269.6316 1.00272122 42322
UTC large
Height (km)
Speed (km/s)
/
Latitude / Longitude
Inclination (degrees)
Orbital Period (minutes)
Azimuth
Elevation
Range (km)
Doppler Factor

Next 0 passes for location: London (51.5072 / 0.1276)

Sorry there are no passes over London.